WetterOnline ( https://www.wetteronline.at )

Wetter aktuell Grevesmühlen

Aktuelles Wetter: Boltenhagen (17m)

6-stündlich | Neueste Meldungen
Ortszeit Temperatur Wetter
Do, 02.07. 20:00 17.1° C wolkig
Do, 02.07. 14:00 20.1° C leicht bewölkt
Do, 02.07. 8:00 16.0° C bewölkt
Do, 02.07. 2:00 14.9° C bewölkt
Mi, 01.07. 20:00 19.0° C wolkig
Mi, 01.07. 14:00 20.3° C wolkig
Mi, 01.07. 8:00 15.0° C wolkig
Mi, 01.07. 2:00 12.7° C Sprühregen
Ortszeit Temperatur Wetter
Do, 02.07. 21:00 16.5° C wolkig
Do, 02.07. 20:50 16.5° C wolkig
Do, 02.07. 20:40 16.7° C bewölkt
Do, 02.07. 20:30 16.8° C bewölkt
Do, 02.07. 20:20 16.8° C bewölkt
Do, 02.07. 20:10 17.0° C bedeckt
Do, 02.07. 20:00 17.1° C wolkig
Do, 02.07. 19:30 16.8° C bewölkt
Do, 02.07. 19:00 16.0° C bewölkt
Do, 02.07. 18:30 16.2° C bewölkt
Do, 02.07. 18:00 16.6° C leichter Regen
Ortszeit Relative Feuchte Sichtweite
Do, 02.07. 20:00 90% 18 km
Do, 02.07. 14:00 65% 60 km
Do, 02.07. 8:00 89% 17 km
Do, 02.07. 2:00 94% 20 km
Mi, 01.07. 20:00 87% 40 km
Mi, 01.07. 14:00 59% 30 km
Mi, 01.07. 8:00 88% 25 km
Mi, 01.07. 2:00 97% 3.0 km
Ortszeit Relative Feuchte Sichtweite
Do, 02.07. 21:00 96% 9 km
Do, 02.07. 20:50 96% -
Do, 02.07. 20:40 95% -
Do, 02.07. 20:30 90% 27 km
Do, 02.07. 20:20 90% -
Do, 02.07. 20:10 91% -
Do, 02.07. 20:00 90% 18 km
Do, 02.07. 19:30 92% 23 km
Do, 02.07. 19:00 94% 30 km
Do, 02.07. 18:30 94% 16 km
Do, 02.07. 18:00 96% 3.1 km
Ortszeit Niederschlagsmenge Niederschlagsart
Do, 02.07. 20:00 5 l/m2 in 12 Std. Regen
Do, 02.07. 14:00 0.1 l/m2 in 6 Std. Regen
Do, 02.07. 8:00 2 l/m2 in 12 Std. Regen
Do, 02.07. 2:00 2 l/m2 in 6 Std. Regen
Mi, 01.07. 20:00 0.3 l/m2 in 12 Std. Regen
Mi, 01.07. 14:00 0.0 l/m2 in 6 Std. -
Mi, 01.07. 8:00 2 l/m2 in 12 Std. Regen
Mi, 01.07. 2:00 2 l/m2 in 6 Std. Regen
Ortszeit Niederschlagsmenge Niederschlagsart
Do, 02.07. 21:00 0.0 l/m2 in 1 Std. -
Do, 02.07. 20:50 keine Meldung -
Do, 02.07. 20:40 keine Meldung -
Do, 02.07. 20:30 0.0 l/m2 in 1 Std. -
Do, 02.07. 20:20 keine Meldung -
Do, 02.07. 20:10 keine Meldung -
Do, 02.07. 20:00 0.0 l/m2 in 1 Std. Regen
Do, 02.07. 19:30 0.0 l/m2 in 1 Std. -
Do, 02.07. 19:00 0.4 l/m2 in 1 Std. Regen
Do, 02.07. 18:30 0.4 l/m2 in 1 Std. Schneeregen
Do, 02.07. 18:00 1.4 l/m2 in 1 Std. Regen
Ortszeit Stärke Spitze Richtung
km/h Bft. km/h Grad Sektor
Do, 02.07. 20:00 0 0 32 - -
Do, 02.07. 14:00 15 3 30 230° SW
Do, 02.07. 8:00 17 3 30 240° SW
Do, 02.07. 2:00 18 3 36 240° SW
Mi, 01.07. 20:00 18 3 40 200° S
Mi, 01.07. 14:00 11 2 32 210° SW
Mi, 01.07. 8:00 13 3 30 230° SW
Mi, 01.07. 2:00 13 3 44 240° SW
Ortszeit Stärke Spitze Richtung
km/h Bft. km/h Grad Sektor
Do, 02.07. 21:00 7 2 11 230° SW
Do, 02.07. 20:50 7 2 - 230° SW
Do, 02.07. 20:40 4 1 - 240° SW
Do, 02.07. 20:30 4 1 7 60° NO
Do, 02.07. 20:20 4 1 - 60° NO
Do, 02.07. 20:10 4 1 - 150° SO
Do, 02.07. 20:00 0 0 11 - -
Do, 02.07. 19:30 7 2 11 250° W
Do, 02.07. 19:00 9 2 17 220° SW
Do, 02.07. 18:30 9 2 17 200° S
Do, 02.07. 18:00 11 2 28 220° SW
Ortszeit Untergrenze Bedeckung Gattung
total tief tief mittel hoch
Do, 02.07. 20:00 2400 m 8/8 3/8 - - -
Do, 02.07. 14:00 900 m 3/8 3/8 - - -
Do, 02.07. 8:00 270 m 7/8 7/8 - - -
Do, 02.07. 2:00 780 m 7/8 7/8 - - -
Mi, 01.07. 20:00 630 m 5/8 5/8 - - -
Mi, 01.07. 14:00 990 m 5/8 4/8 - - -
Mi, 01.07. 8:00 240 m 8/8 3/8 - - -
Mi, 01.07. 2:00 90 m 8/8 8/8 - - -
Ortszeit Bedeckungsgrad in Achtel und Wolkenuntergrenze
Do, 02.07. 21:00 2(2400m) 8(3300m) 8(4200m)
Do, 02.07. 20:50 2(2400m) 8(3300m) 8(4200m)
Do, 02.07. 20:40 5(2700m) 8(3300m) 8(4200m)
Do, 02.07. 20:30 6(2700m) 7(3600m) 8(4200m)
Do, 02.07. 20:20 6(2700m) 7(3600m) 8(4200m)
Do, 02.07. 20:10 5(3000m) 7(3900m) 8(4200m)
Do, 02.07. 20:00 3(2400m) 8(3900m) 8(4500m)
Do, 02.07. 19:30 7(2400m) 8(3000m) 8(4500m)
Do, 02.07. 19:00 7(2700m)
Do, 02.07. 18:30 2(870m) 7(2700m) 8(3300m)
Do, 02.07. 18:00 3(270m) 7(1500m) 8(2400m)
Ortszeit Luftdruck NN (hPa) Tendenz (hPa in 3 Std.)
Do, 02.07. 20:00 1010 + 0,5
Do, 02.07. 14:00 1009 + 0,4
Do, 02.07. 8:00 1008 + 1,5
Do, 02.07. 2:00 1006 + 1,0
Mi, 01.07. 20:00 1003 - 0,9
Mi, 01.07. 14:00 1005 - 0,3
Mi, 01.07. 8:00 1005 + 0,3
Mi, 01.07. 2:00 1005 - 0,4
Ortszeit Luftdruck NN (hPa) Tendenz (hPa in 3 Std.)
Do, 02.07. 21:00 1010 + 0,3
Do, 02.07. 20:50 1010 keine Meldung
Do, 02.07. 20:40 1010 keine Meldung
Do, 02.07. 20:30 1010 + 0,2
Do, 02.07. 20:20 1010 keine Meldung
Do, 02.07. 20:10 1009 keine Meldung
Do, 02.07. 20:00 1010 + 0,5
Do, 02.07. 19:30 1010 + 0,5
Do, 02.07. 19:00 1009 + 0,4
Do, 02.07. 18:30 1009 + 0,4
Do, 02.07. 18:00 1010 + 0,7
Ortszeit Schneehöhe (cm)
Do, 02.07. 20:00 -
Do, 02.07. 14:00 -
Do, 02.07. 8:00 -
Do, 02.07. 2:00 -
Mi, 01.07. 20:00 -
Mi, 01.07. 14:00 -
Mi, 01.07. 8:00 -
Mi, 01.07. 2:00 -
Ortszeit Schneehöhe (cm)
Do, 02.07. 21:00 -
Do, 02.07. 20:50 -
Do, 02.07. 20:40 -
Do, 02.07. 20:30 -
Do, 02.07. 20:20 -
Do, 02.07. 20:10 -
Do, 02.07. 20:00 -
Do, 02.07. 19:30 -
Do, 02.07. 19:00 -
Do, 02.07. 18:30 -
Do, 02.07. 18:00 -
Link zu dieser Seite / Seite empfehlen

Das Wetter in ...